CW0566 Weather Reports


time (UTC)temp
C
wind
direction
speed
KPH
gust
KPH
rain 1hr
cm
rain 24hr
cm
rain mn
cm
humidity
%
barometer
mb
20260508125017 15 315 3.2 4.8 0.00 0.00 0.00 60 1014.8
20260508124016 15 270 3.2 6.4 0.00 0.00 0.00 64 1014.4
20260508123016 14 293 1.6 6.4 0.00 0.00 0.00 65 1014.6
20260508122016 13 315 1.6 6.4 0.00 0.00 0.00 67 1014.6
20260508121036 13 293 1.6 6.4 0.00 0.00 0.00 67 1014.5
20260508120016 12 0 3.2 6.4 0.00 0.00 0.00 69 1014.4
20260508115057 12 0.0 6.4 0.00 0.00 0.00 73 1014.4
20260508114017 11 23 1.6 6.4 0.00 0.00 0.00 76 1014.1
20260508113016 10 315 1.6 6.4 0.00 0.00 0.00 83 1014.2
20260508112036 8 0.0 3.2 0.00 0.00 0.00 89 1014.1
20260508111016 7 0.0 0.0 0.00 0.00 0.00 88 1014.1
20260508110016 6 0.0 0.0 0.00 0.00 0.00 87 1013.8
20260508105016 6 0.0 0.0 0.00 0.00 0.00 84 1013.7
20260508104017 6 0.0 0.0 0.00 0.00 0.00 83 1013.5
20260508103016 6 0.0 0.0 0.00 0.00 0.00 82 1013.6
20260508102016 7 0.0 0.0 0.00 0.00 0.00 81 1013.5
20260508101016 7 0.0 0.0 0.00 0.00 0.00 80 1013.4
20260508100016 7 0.0 0.0 0.00 0.00 0.00 79 1013.3
20260508095036 8 0.0 0.0 0.00 0.00 0.00 78 1013.0
20260508094017 8 0.0 1.6 0.00 0.00 0.00 76 1012.9
20260508093116 8 0.0 0.0 0.00 0.00 0.00 75 1012.9
20260508092016 9 0.0 1.6 0.00 0.00 0.00 74 1012.8
20260508091016 9 0.0 4.8 0.00 0.00 0.00 73 1012.9
20260508090016 10 0.0 3.2 0.00 0.00 0.00 72 1012.8
20260508085016 10 0.0 3.2 0.00 0.00 0.00 72 1012.7
20260508084036 10 315 1.6 6.4 0.00 0.00 0.00 71 1012.5
20260508083015 10 315 3.2 12.9 0.00 0.00 0.00 71 1012.4
20260508082016 10 315 1.6 8.0 0.00 0.00 0.00 71 1012.2
20260508081035 10 315 3.2 8.0 0.00 0.00 0.00 71 1011.9
20260508080016 11 315 4.8 14.5 0.00 0.00 0.00 71 1011.7
20260508075015 11 315 1.6 4.8 0.00 0.00 0.00 72 1011.5
20260508074016 11 315 3.2 8.0 0.00 0.00 0.00 72 1011.3
20260508073015 11 315 4.8 9.7 0.00 0.00 0.00 74 1011.1
20260508072015 11 315 3.2 6.4 0.00 0.00 0.00 76 1011.0
20260508071015 11 315 3.2 8.0 0.00 0.00 0.00 77 1010.8
20260508070015 11 315 3.2 9.7 0.00 0.00 0.00 79 1010.6
20260508065018 11 315 4.8 12.9 0.00 0.00 0.00 81 1010.4
20260508064018 11 315 4.8 12.9 0.00 0.00 0.00 83 1010.4
20260508063018 11 315 4.8 8.0 0.00 0.00 0.00 83 1010.1
20260508062018 11 315 3.2 8.0 0.00 0.00 0.00 83 1010.1
20260508061017 11 315 4.8 8.0 0.00 0.00 0.00 83 1010.1
20260508060057 11 315 3.2 8.0 0.00 0.00 0.00 82 1010.0
20260508055038 11 315 3.2 6.4 0.00 0.00 0.00 82 1009.9
20260508054017 11 315 4.8 12.9 0.00 0.03 0.00 82 1009.9
20260508053017 11 315 4.8 12.9 0.00 0.03 0.00 82 1009.9
20260508052037 11 315 3.2 14.5 0.00 0.03 0.00 82 1009.9
20260508051017 11 315 3.2 6.4 0.00 0.03 0.00 81 1009.8
20260508050037 11 315 3.2 6.4 0.00 0.03 0.00 81 1009.8
20260508045017 11 315 3.2 9.7 0.00 0.03 0.00 81 1009.8
20260508044017 11 315 4.8 12.9 0.00 0.03 0.00 80 1009.7
20260508043017 11 315 3.2 8.0 0.00 0.03 0.00 80 1009.6
20260508042017 11 315 3.2 9.7 0.00 0.03 0.00 80 1009.7
20260508041017 11 315 4.8 12.9 0.00 0.03 0.00 80 1009.8
20260508040017 11 315 3.2 9.7 0.00 0.03 0.03 79 1009.8
20260508035015 11 315 4.8 9.7 0.00 0.03 0.03 79 1009.7
20260508034015 11 315 4.8 9.7 0.00 0.03 0.03 78 1009.6
20260508033016 11 315 4.8 12.9 0.00 0.03 0.03 78 1009.6
20260508032016 11 315 6.4 14.5 0.00 0.03 0.03 78 1009.6
20260508031015 11 315 8.0 17.7 0.00 0.03 0.03 78 1009.7
20260508030036 11 315 6.4 22.5 0.00 0.03 0.03 78 1009.6
20260508025016 11 315 9.7 17.7 0.00 0.03 0.03 79 1009.7
20260508024015 11 315 8.0 19.3 0.00 0.03 0.03 81 1009.7
20260508023015 10 315 4.8 9.7 0.00 0.03 0.03 82 1009.6
20260508022015 10 315 3.2 6.4 0.00 0.03 0.03 83 1009.6
20260508021016 10 315 1.6 6.4 0.00 0.03 0.03 82 1009.5
20260508020015 10 315 1.6 4.8 0.00 0.03 0.03 79 1009.2
20260508015015 10 0.0 1.6 0.00 0.03 0.03 77 1009.1
20260508014015 10 315 1.6 3.2 0.00 0.03 0.03 75 1009.1
20260508013015 11 0.0 1.6 0.00 0.03 0.03 73 1008.9
20260508012016 11 0.0 0.0 0.00 0.03 0.03 72 1008.8
20260508011037 11 0.0 3.2 0.00 0.03 0.03 71 1008.6
20260508010015 12 0.0 0.0 0.00 0.03 0.03 69 1008.5
20260508005017 12 0.0 1.6 0.00 0.03 0.03 68 1008.4
20260508004017 12 0.0 0.0 0.00 0.03 0.03 63 1008.3
20260508003017 13 0.0 0.0 0.00 0.03 0.03 61 1008.3
20260508002018 14 0.0 0.0 0.00 0.03 0.03 58 1008.3
20260508001017 15 0.0 0.0 0.00 0.03 0.03 53 1008.3
20260508000038 16 0.0 1.6 0.00 0.03 0.03 50 1008.2
20260507235017 16 0.0 3.2 0.00 0.03 0.03 47 1008.2
20260507234017 17 23 1.6 6.4 0.00 0.03 0.03 45 1008.1
20260507233017 17 0.0 3.2 0.00 0.03 0.03 41 1008.1
20260507232017 18 315 1.6 4.8 0.00 0.03 0.03 39 1008.0
20260507231018 18 0.0 4.8 0.00 0.03 0.03 40 1007.9
20260507230017 18 45 1.6 3.2 0.00 0.03 0.03 39 1007.8
20260507225018 18 315 1.6 3.2 0.00 0.03 0.03 41 1007.7
20260507224017 18 90 3.2 6.4 0.00 0.03 0.03 40 1007.6
20260507223017 19 293 3.2 6.4 0.00 0.03 0.03 40 1007.5
20260507222018 19 0 1.6 4.8 0.00 0.03 0.03 41 1007.7
20260507221017 19 45 1.6 6.4 0.00 0.03 0.03 40 1007.6
20260507220017 19 293 3.2 8.0 0.00 0.03 0.03 40 1007.8
20260507215017 20 338 3.2 9.7 0.00 0.03 0.03 39 1007.8
20260507214017 20 90 3.2 6.4 0.00 0.03 0.03 40 1007.9
20260507213017 20 293 3.2 9.7 0.00 0.03 0.03 43 1007.9
20260507212017 19 68 4.8 12.9 0.00 0.03 0.03 43 1007.8
20260507211017 19 90 1.6 6.4 0.00 0.03 0.03 42 1007.9
20260507210016 19 23 1.6 3.2 0.00 0.03 0.03 44 1007.8
20260507205017 18 90 3.2 11.3 0.00 0.03 0.03 44 1007.8
20260507204017 18 315 3.2 8.0 0.00 0.03 0.03 46 1007.7
20260507203017 17 315 3.2 6.4 0.00 0.03 0.03 47 1007.6
20260507202017 18 315 1.6 6.4 0.00 0.03 0.03 47 1007.6
20260507201037 18 0 1.6 6.4 0.00 0.03 0.03 45 1007.8
20260507200017 18 0 3.2 9.7 0.00 0.03 0.03 46 1007.9
20260507195017 18 68 3.2 9.7 0.00 0.03 0.03 45 1007.9
20260507194017 18 113 4.8 11.3 0.00 0.03 0.03 44 1008.0
20260507193017 18 23 4.8 14.5 0.00 0.03 0.03 45 1008.1
20260507192017 18 68 4.8 9.7 0.00 0.03 0.03 47 1008.2
20260507191018 18 45 1.6 4.8 0.00 0.03 0.03 44 1008.3
20260507190017 18 68 4.8 14.5 0.00 0.03 0.03 47 1008.7
20260507185017 18 90 4.8 11.3 0.00 0.03 0.03 46 1009.0
20260507184016 18 293 4.8 12.9 0.00 0.03 0.03 48 1009.0
20260507183017 18 315 1.6 4.8 0.00 0.03 0.03 52 1009.1
20260507182017 18 90 4.8 8.0 0.00 0.03 0.03 46 1008.9
20260507181017 18 45 4.8 11.3 0.00 0.03 0.03 49 1008.9
20260507180016 17 23 4.8 14.5 0.00 0.03 0.03 48 1009.0
20260507175018 17 23 4.8 11.3 0.00 0.03 0.03 48 1009.4
20260507174016 17 90 4.8 9.7 0.00 0.03 0.03 50 1009.4
20260507173037 17 90 3.2 9.7 0.00 0.03 0.03 54 1009.8
20260507172016 17 338 3.2 9.7 0.00 0.03 0.03 55 1010.0
20260507171037 17 135 4.8 12.9 0.00 0.03 0.03 52 1010.1
20260507170016 17 135 3.2 8.0 0.00 0.03 0.03 54 1010.2
20260507165017 16 90 4.8 12.9 0.00 0.03 0.03 54 1010.3
20260507164016 16 315 3.2 6.4 0.00 0.03 0.03 59 1010.6
20260507163016 15 23 1.6 4.8 0.00 0.03 0.03 62 1010.7
20260507162016 15 113 1.6 8.0 0.00 0.03 0.03 62 1010.8
20260507161036 15 90 1.6 3.2 0.00 0.03 0.03 65 1011.0
20260507160016 15 90 3.2 8.0 0.00 0.03 0.03 64 1011.0
20260507155016 15 315 3.2 8.0 0.00 0.03 0.03 64 1011.0
20260507154016 15 90 3.2 9.7 0.00 0.03 0.03 64 1011.1
20260507153016 15 68 4.8 9.7 0.00 0.03 0.03 62 1011.3
20260507152017 15 23 4.8 14.5 0.00 0.03 0.03 62 1011.3
20260507151016 14 315 3.2 8.0 0.00 0.03 0.03 64 1011.5
20260507150036 14 338 3.2 12.9 0.00 0.03 0.03 63 1011.6
20260507145016 14 0 4.8 12.9 0.00 0.03 0.03 64 1011.5
20260507144017 14 90 3.2 9.7 0.00 0.03 0.03 68 1011.8
20260507143017 14 45 4.8 12.9 0.00 0.03 0.03 70 1011.8
20260507142016 13 45 3.2 11.3 0.00 0.03 0.03 74 1011.7
20260507141017 13 315 3.2 12.9 0.00 0.03 0.03 75 1011.8
20260507140016 13 315 4.8 9.7 0.00 0.03 0.03 76 1011.9
20260507135016 12 315 3.2 6.4 0.00 0.03 0.03 80 1012.0
20260507134016 12 315 3.2 9.7 0.00 0.03 0.03 81 1012.1
20260507133058 12 315 1.6 6.4 0.00 0.03 0.03 82 1012.1
20260507132016 12 315 3.2 9.7 0.00 0.03 0.03 82 1012.0
20260507131016 12 0 1.6 6.4 0.00 0.03 0.03 83 1012.0
20260507130016 12 23 3.2 11.3 0.00 0.03 0.03 85 1012.0